Regional Weather Roundup
Issued by NWS

Home | Current Version | Previous Version | Graphics & Text | Print | Product List | Glossary On
Versions: 1 2 3 4 5 6 7 8 9 10 11 12 13 14 15 16 17 18 19 20 21 22 23 24 25 26 27 28 29 30 31 32 33 34 35 36 37 38 39 40 41 42 43 44 45 46 47 48 49 50
000
ASUS45 KBOI 291710
RWRID

IDAHO REGIONAL WEATHER ROUNDUP
NATIONAL WEATHER SERVICE BOISE ID
1100 AM MDT THU SEP 29 2016

NOTE: "FAIR" INDICATES FEW OR NO CLOUDS BELOW 12000 FEET
WITH NO SIGNIFICANT WEATHER AND/OR OBSTRUCTIONS TO VISIBILITY

IDZ012-014-291800-
SOUTHWEST IDAHO


CITY           SKY/WX    TMP DP  RH WIND       PRES   REMARKS
BOISE          SUNNY     82  42  24 SE18G26   30.02R
CALDWELL       SUNNY     76  49  38 SE17      30.01R
MOUNTAIN HOME  PTSUNNY   74  48  40 E21       30.04R
$$

IDZ016-017-291800-
SOUTHCENTRAL IDAHO


CITY           SKY/WX    TMP DP  RH WIND       PRES   REMARKS
BURLEY         MOSUNNY   64  51  62 SE6       30.15
JEROME         SUNNY     73  48  41 NE10      30.14R
TWIN FALLS     MOSUNNY   73  42  32 S15G23    30.12F
$$

IDZ019>023-291800-
SOUTHEAST IDAHO


CITY           SKY/WX    TMP DP  RH WIND       PRES   REMARKS
IDAHO FALLS    CLOUDY    69  48  47 NW6       30.23S
POCATELLO      CLOUDY    69  49  48 E3        30.21R
REXBURG        CLOUDY    64  49  57 CALM      30.25R
$$

IDZ006-010-011-018-031-032-291800-
CENTRAL IDAHO MOUNTAINS


CITY           SKY/WX    TMP DP  RH WIND       PRES   REMARKS
MCCALL         MOSUNNY   62  40  44 CALM      30.12R
HAILEY         MOSUNNY   63  45  51 W7        30.25S
STANLEY          N/A     49  35  58 CALM      30.28R
SALMON         SUNNY     57  37  47 CALM      30.17F
CHALLIS        SUNNY     60  34  37 N3        30.21F
$$

IDZ002-004-006-007-026-291800-
NORTHERN IDAHO


CITY           SKY/WX    TMP DP  RH WIND       PRES   REMARKS
LEWISTON       MOSUNNY   63  47  55 N3        29.97R
LOWELL           N/A     58  50  75 CALM      30.01F
COEUR D`ALENE  MOSUNNY   60  49  66 NE9       30.00R
MULLAN PASS    CLOUDY    59  39  47 S9        30.15R
$$



USA.gov is the U.S. government's official web portal to all federal, state and local government web resources and services.